Location: Limerick
(52.6800°N, 8.6400°W)
Time: 19:16:13
(UTC+00:00)

Sapphire - Visible Passes

Search period start: 28 February 2015 00:00
Search period end: 10 March 2015 00:00
Orbit: 785 x 797 km, 67.1° (Epoch: 27 February)

Date Brightness Start Highest point End Pass type
(mag) Time Alt. Az. Time Alt. Az. Time Alt. Az.
28 Feb ? 01:56:51 15° NNE 01:56:51 15° NNE 01:58:12 10° NE visible
28 Feb ? 03:37:34 16° NNW 03:39:41 20° NNE 03:43:41 10° ENE visible
28 Feb ? 05:19:19 10° NNW 05:24:31 43° NE 05:29:42 10° ESE visible
01 Mar ? 01:26:59 12° NNE 01:26:59 12° NNE 01:27:33 10° NNE visible
01 Mar ? 03:07:42 18° N 03:08:51 19° N 03:12:42 10° NE visible
01 Mar ? 04:48:48 10° NNW 04:53:50 36° NE 04:58:52 10° ESE visible
01 Mar ? 06:32:14 10° NW 06:37:38 64° WSW 06:43:00 10° SSE visible
02 Mar ? 02:37:50 18° N 02:38:01 18° N 02:41:45 10° NE visible
02 Mar ? 04:18:34 11° NNW 04:23:07 31° NNE 04:27:58 10° E visible
02 Mar ? 06:01:39 10° NW 06:07:08 81° SW 06:12:34 10° SSE visible
03 Mar ? 02:07:59 17° NNE 02:07:59 17° NNE 02:10:50 10° NE visible
03 Mar ? 03:48:43 14° NNW 03:52:22 27° NNE 03:57:02 10° E visible
03 Mar ? 05:31:07 10° NW 05:36:37 82° NE 05:42:03 10° SE visible
04 Mar ? 01:38:09 15° NNE 01:38:09 15° NNE 01:39:59 10° NE visible
04 Mar ? 03:18:53 17° NNW 03:21:36 24° NNE 03:26:03 10° ENE visible
04 Mar ? 05:00:35 10° NW 05:06:02 67° NE 05:11:27 10° SE visible
05 Mar ? 01:08:21 13° NNE 01:08:21 13° NNE 01:09:12 10° NE visible
05 Mar ? 02:49:05 19° N 02:50:49 22° NNE 02:55:03 10° ENE visible
05 Mar ? 04:30:04 10° NW 04:35:25 54° NE 04:40:46 10° ESE visible
05 Mar ? 06:13:46 10° NW 06:18:44 36° WSW 06:23:38 10° S visible
05 Mar ? 19:21:37 10° ESE 19:22:34 11° ESE 19:22:34 11° ESE visible
05 Mar ? 21:00:34 10° SSW 21:03:30 32° S 21:03:30 32° S visible
06 Mar ? 02:19:20 20° N 02:20:00 20° NNE 02:24:03 10° ENE visible
06 Mar ? 04:00:05 13° NNW 04:04:47 45° NE 04:10:00 10° ESE visible
06 Mar ? 05:43:05 10° NW 05:48:19 46° WSW 05:53:28 10° S visible
06 Mar ? 20:30:16 10° SSW 20:35:27 48° ESE 20:36:37 41° E visible
06 Mar ? 22:13:47 10° WSW 22:17:34 37° WNW 22:17:34 37° WNW visible
07 Mar?00:08:59NE00:08:59NE23:58:30WNWvisible
07 Mar ? 01:49:44 19° NNE 01:49:44 19° NNE 01:53:04 10° ENE visible
07 Mar ? 03:30:29 18° NNW 03:34:06 38° NE 03:39:11 10° ESE visible
07 Mar ? 05:12:29 10° NW 05:17:51 60° WSW 05:23:10 10° SSE visible
07 Mar ? 20:00:05 10° S 20:05:01 37° ESE 20:09:46 11° NE visible
07 Mar ? 21:43:01 10° WSW 21:48:21 53° NW 21:50:42 31° NNE visible
07 Mar ? 23:28:45 10° WNW 23:39:36 - NE 23:31:39 20° NW visible
08 Mar ? 01:20:22 15° NE 01:20:22 15° NE 01:22:06 10° NE visible
08 Mar ? 03:01:09 24° N 03:03:24 33° NNE 03:08:18 10° E visible
08 Mar ? 04:41:56 10° NW 04:47:21 75° SW 04:52:47 10° SSE visible
08 Mar ? 06:26:48 10° WNW 06:30:00 16° WSW 06:33:00 10° SW visible
08 Mar ? 19:30:02 10° S 19:34:37 29° ESE 19:39:17 10° NE visible
08 Mar ? 21:12:19 10° SW 21:17:44 65° NW 21:23:12 10° NE visible
08 Mar ? 22:57:45 10° WNW 23:02:11 24° NNW 23:04:20 19° N visible
09 Mar ? 00:43:48 10° NW 00:51:38 - NE 00:45:13 14° NNW visible
09 Mar ? 02:32:28 28° NNE 02:32:40 28° NNE 02:37:22 10° E visible
09 Mar ? 04:13:19 23° NW 04:16:50 87° ENE 04:22:17 10° SE visible
09 Mar ? 05:55:42 10° WNW 05:59:40 20° WSW 06:03:30 10° SSW visible
09 Mar ? 19:00:10 10° SSE 19:04:14 23° ESE 19:08:28 10° ENE visible
09 Mar ? 20:41:43 10° SW 20:47:10 81° NW 20:52:40 10° NE visible
09 Mar ? 22:26:47 10° W 22:31:25 27° NNW 22:36:02 10° NNE visible
